| time (UTC) | temp F | wind direction | speed MPH | gust MPH | rain 1hr in | rain 24hr in | rain mn in | humidity % | barometer mb |
| 20260509081458 | 52 | 61 | 1.0 | 2.0 | 0.00 | 0.00 | 0.00 | 73 | 1011.6 |
| 20260509075958 | 52 | 61 | 1.0 | 2.0 | 0.00 | 0.00 | 0.00 | 73 | 1011.6 |
| 20260509074458 | 51 | 61 | 0.0 | 0.0 | 0.00 | 0.00 | 0.00 | 74 | 1011.8 |
| 20260509072957 | 52 | 61 | 0.0 | 2.0 | 0.00 | 0.00 | 0.00 | 73 | 1011.5 |
| 20260509065958 | 51 | 305 | 0.0 | 2.0 | 0.00 | 0.01 | 0.00 | 77 | 1011.6 |
| 20260509064457 | 51 | 305 | 0.0 | 0.0 | 0.00 | 0.01 | 0.00 | 78 | 1011.7 |
| 20260509062958 | 51 | 305 | 0.0 | 2.0 | 0.00 | 0.01 | 0.00 | 77 | 1011.8 |
| 20260509061457 | 52 | 305 | 0.0 | 3.0 | 0.00 | 0.01 | 0.00 | 75 | 1012.1 |
| 20260509060000 | 54 | 25 | 0.0 | 1.0 | 0.00 | 0.01 | 0.00 | 73 | 1011.9 |
| 20260509054457 | 54 | 25 | 1.0 | 2.0 | 0.00 | 0.01 | 0.00 | 68 | 1011.9 |
| 20260509052958 | 54 | 25 | 0.0 | 2.0 | 0.00 | 0.01 | 0.00 | 66 | 1011.9 |
| 20260509050001 | 53 | 25 | 0.0 | 0.0 | 0.00 | 0.01 | 0.00 | 70 | 1012.7 |
| 20260509044500 | 53 | 25 | 0.0 | 2.0 | 0.00 | 0.01 | 0.00 | 69 | 1012.7 |
| 20260509041500 | 54 | 25 | 0.0 | 1.0 | 0.00 | 0.01 | 0.00 | 69 | 1012.6 |
| 20260509040005 | 53 | 25 | 0.0 | 2.0 | 0.00 | 0.01 | 0.00 | 70 | 1012.6 |
| 20260509034502 | 53 | 25 | 0.0 | 2.0 | 0.00 | 0.01 | 0.01 | 71 | 1012.6 |
| 20260509033002 | 53 | 25 | 0.0 | 0.0 | 0.00 | 0.01 | 0.01 | 69 | 1012.6 |
| 20260509031501 | 53 | 25 | 0.0 | 0.0 | 0.00 | 0.01 | 0.01 | 71 | 1012.6 |
| 20260509030002 | 53 | 25 | 0.0 | 0.0 | 0.00 | 0.01 | 0.01 | 71 | 1012.6 |
| 20260509024501 | 52 | 25 | 0.0 | 0.0 | 0.00 | 0.01 | 0.01 | 74 | 1012.6 |
| 20260509023001 | 53 | 25 | 0.0 | 0.0 | 0.00 | 0.01 | 0.01 | 74 | 1012.6 |
| 20260509021500 | 54 | 25 | 0.0 | 0.0 | 0.00 | 0.01 | 0.01 | 71 | 1012.6 |
| 20260509015959 | 54 | 25 | 0.0 | 0.0 | 0.00 | 0.01 | 0.01 | 69 | 1012.4 |
| 20260509014500 | 54 | 25 | 0.0 | 0.0 | 0.00 | 0.01 | 0.01 | 69 | 1012.2 |
| 20260509011459 | 54 | 25 | 0.0 | 0.0 | 0.00 | 0.01 | 0.01 | 68 | 1011.9 |
| 20260509010003 | 55 | 25 | 0.0 | 0.0 | 0.00 | 0.01 | 0.01 | 67 | 1011.6 |
| 20260509004501 | 55 | 25 | 0.0 | 0.0 | 0.00 | 0.01 | 0.01 | 66 | 1011.2 |
| 20260509003001 | 55 | 25 | 0.0 | 0.0 | 0.00 | 0.01 | 0.01 | 68 | 1011.1 |
| 20260509001501 | 55 | 25 | 0.0 | 2.0 | 0.00 | 0.01 | 0.01 | 65 | 1010.9 |
| 20260509000001 | 56 | 25 | 1.0 | 3.0 | 0.00 | 0.01 | 0.01 | 63 | 1010.7 |
| 20260508234500 | 56 | 281 | 1.0 | 2.0 | 0.00 | 0.01 | 0.01 | 64 | 1010.6 |
| 20260508233001 | 57 | 270 | 0.0 | 4.0 | 0.00 | 0.01 | 0.01 | 60 | 1010.6 |
| 20260508230002 | 57 | 296 | 1.0 | 3.0 | 0.00 | 0.01 | 0.01 | 58 | 1010.7 |
| 20260508224502 | 58 | 308 | 2.0 | 6.0 | 0.00 | 0.01 | 0.01 | 56 | 1010.7 |
| 20260508221502 | 58 | 283 | 4.0 | 9.0 | 0.00 | 0.01 | 0.01 | 53 | 1010.6 |
| 20260508214500 | 58 | 328 | 3.0 | 10.0 | 0.00 | 0.01 | 0.01 | 54 | 1010.7 |
| 20260508213001 | 59 | 268 | 4.0 | 10.0 | 0.00 | 0.01 | 0.01 | 53 | 1010.8 |
| 20260508211459 | 60 | 297 | 4.0 | 9.0 | 0.00 | 0.01 | 0.01 | 52 | 1010.6 |
| 20260508210002 | 59 | 281 | 4.0 | 8.0 | 0.00 | 0.01 | 0.01 | 55 | 1010.7 |
| 20260508204500 | 59 | 308 | 5.0 | 9.0 | 0.00 | 0.01 | 0.01 | 54 | 1010.8 |
| 20260508201500 | 58 | 280 | 5.0 | 13.0 | 0.00 | 0.01 | 0.01 | 55 | 1011.1 |
| 20260508200001 | 57 | 274 | 5.0 | 10.0 | 0.00 | 0.01 | 0.01 | 57 | 1011.2 |
| 20260508194500 | 57 | 290 | 4.0 | 11.0 | 0.00 | 0.01 | 0.01 | 55 | 1011.5 |
| 20260508193000 | 57 | 306 | 4.0 | 15.0 | 0.00 | 0.01 | 0.01 | 57 | 1011.3 |
| 20260508191500 | 57 | 281 | 4.0 | 12.0 | 0.00 | 0.01 | 0.01 | 60 | 1011.3 |
| 20260508190002 | 57 | 263 | 5.0 | 10.0 | 0.00 | 0.01 | 0.01 | 56 | 1011.5 |
| 20260508183000 | 59 | 299 | 5.0 | 10.0 | 0.00 | 0.01 | 0.01 | 48 | 1011.2 |
| 20260508180002 | 59 | 277 | 8.0 | 15.0 | 0.00 | 0.01 | 0.01 | 46 | 1011.2 |
| 20260508174500 | 58 | 280 | 7.0 | 16.0 | 0.00 | 0.01 | 0.01 | 48 | 1011.3 |
| 20260508173001 | 59 | 359 | 7.0 | 14.0 | 0.00 | 0.01 | 0.01 | 49 | 1011.5 |
| 20260508164459 | 57 | 272 | 6.0 | 12.0 | 0.00 | 0.01 | 0.01 | 53 | 1011.9 |
| 20260508160001 | 54 | 272 | 4.0 | 9.0 | 0.00 | 0.01 | 0.01 | 54 | 1012.5 |
| 20260508154500 | 52 | 319 | 5.0 | 8.0 | 0.00 | 0.01 | 0.01 | 54 | 1012.8 |
| 20260508151500 | 51 | 294 | 4.0 | 8.0 | 0.00 | 0.01 | 0.01 | 55 | 1013.3 |
| 20260508145959 | 51 | 288 | 4.0 | 11.0 | 0.00 | 0.01 | 0.01 | 54 | 1013.3 |
| 20260508144459 | 51 | 288 | 4.0 | 11.0 | 0.00 | 0.01 | 0.01 | 55 | 1013.2 |
| 20260508142959 | 51 | 254 | 4.0 | 7.0 | 0.00 | 0.01 | 0.01 | 57 | 1012.9 |
| 20260508141459 | 52 | 278 | 4.0 | 8.0 | 0.00 | 0.01 | 0.01 | 56 | 1013.0 |
| 20260508135959 | 51 | 285 | 4.0 | 8.0 | 0.00 | 0.01 | 0.01 | 58 | 1013.0 |
| 20260508134459 | 52 | 285 | 3.0 | 7.0 | 0.00 | 0.01 | 0.01 | 57 | 1013.0 |
| 20260508132958 | 51 | 309 | 3.0 | 8.0 | 0.00 | 0.01 | 0.01 | 61 | 1013.0 |
| 20260508131458 | 50 | 360 | 4.0 | 9.0 | 0.00 | 0.01 | 0.01 | 61 | 1013.0 |
| 20260508125959 | 49 | 276 | 4.0 | 8.0 | 0.00 | 0.01 | 0.01 | 65 | 1013.1 |
| 20260508124459 | 49 | 309 | 4.0 | 8.0 | 0.00 | 0.01 | 0.01 | 74 | 1013.1 |
| 20260508122958 | 48 | 289 | 2.0 | 6.0 | 0.00 | 0.01 | 0.01 | 77 | 1013.2 |
| 20260508121458 | 47 | 268 | 3.0 | 7.0 | 0.00 | 0.01 | 0.01 | 80 | 1012.9 |
| 20260508115959 | 46 | 282 | 3.0 | 7.0 | 0.00 | 0.01 | 0.01 | 84 | 1012.7 |
| 20260508114459 | 45 | 323 | 2.0 | 6.0 | 0.00 | 0.01 | 0.01 | 84 | 1012.8 |
| 20260508112959 | 44 | 279 | 3.0 | 7.0 | 0.00 | 0.01 | 0.01 | 79 | 1013.1 |
| 20260508111458 | 43 | 279 | 2.0 | 4.0 | 0.00 | 0.01 | 0.01 | 74 | 1012.8 |
| 20260508105959 | 42 | 297 | 2.0 | 4.0 | 0.00 | 0.01 | 0.01 | 69 | 1012.7 |
| 20260508104458 | 41 | 281 | 2.0 | 4.0 | 0.00 | 0.01 | 0.01 | 66 | 1012.5 |
| 20260508102957 | 41 | 317 | 1.0 | 3.0 | 0.00 | 0.01 | 0.01 | 69 | 1012.3 |
| 20260508101457 | 41 | 305 | 1.0 | 2.0 | 0.00 | 0.01 | 0.01 | 72 | 1012.2 |
| 20260508095958 | 40 | 305 | 1.0 | 3.0 | 0.00 | 0.01 | 0.01 | 73 | 1012.1 |
| 20260508094459 | 41 | 305 | 1.0 | 4.0 | 0.00 | 0.01 | 0.01 | 74 | 1012.0 |
| 20260508092959 | 40 | 318 | 0.0 | 1.0 | 0.00 | 0.01 | 0.01 | 79 | 1011.9 |
| 20260508091458 | 41 | 318 | 0.0 | 1.0 | 0.00 | 0.01 | 0.01 | 80 | 1011.8 |
| 20260508090000 | 41 | 318 | 0.0 | 1.0 | 0.00 | 0.01 | 0.01 | 83 | 1011.8 |
| 20260508084458 | 42 | 318 | 0.0 | 1.0 | 0.00 | 0.01 | 0.01 | 84 | 1011.8 |